Regional Weather Roundup
Issued by NWS

Home | Current Version | Previous Version | Text Only | Print | Product List | Glossary Off
Versions: 1 2 3 4 5 6 7 8 9 10 11 12 13 14 15 16 17 18 19 20 21 22 23 24 25 26 27 28 29 30 31 32 33 34 35 36 37 38 39 40 41 42 43 44 45 46 47 48 49 50

000
ASUS43 KLMK 202202
RWRKY
KENTUCKY REGIONAL WEATHER ROUNDUP
NATIONAL WEATHER SERVICE LOUISVILLE KY
600 PM EDT MON APR 20 2015

NOTE "FAIR" INDICATES FEW OR NO CLOUDS BELOW 12,000 FEET
WITH NO SIGNIFICANT WEATHER AND/OR OBSTRUCTIONS TO VISIBILITY.

KYZ001>023-026-027-061>063-070>075-202300-
WESTERN AND SOUTH CENTRAL KENTUCKY

CITY           SKY/WX    TMP DP  RH WIND       PRES   REMARKS
PADUCAH        PTSUNNY   63  37  38 W14G22    29.75R
HENDERSON      PTSUNNY   59  37  44 W16G22    29.73S
OWENSBORO      PTSUNNY   60  41  49 NW16G22   29.74R
HOPKINSVILLE   MOSUNNY   63  39  42 W16G24    29.75R
BOWLING GREEN  PTSUNNY   62  43  49 W13G23    29.73R
GLASGOW        NOT AVBL
$$

KYZ024-025-028>034-038-045-046-053-202300-
NORTH CENTRAL KENTUCKY

CITY           SKY/WX    TMP DP  RH WIND       PRES   REMARKS
LOUISVILLE/SDF PTSUNNY   61  41  47 W15G26    29.68R
LOUISVILLE/LOU PTSUNNY   60  40  47 W17G26    29.68R
FORT KNOX      MOSUNNY   59  40  48 W21       29.68R
$$

KYZ035>037-039>044-047>052-055>060-089>105-202300-
NORTHEAST KENTUCKY

CITY           SKY/WX    TMP DP  RH WIND       PRES   REMARKS
LEXINGTON      CLOUDY    56  45  66 W14G24    29.67R
COVINGTON      CLOUDY    57  41  55 W14G21    29.62S
FRANKFORT      PTSUNNY   57  41  55 W14G26    29.66R
$$

KYZ054-064>069-076>088-106>120-202300-
SOUTHEAST KENTUCKY

CITY           SKY/WX    TMP DP  RH WIND       PRES   REMARKS
JACKSON        LGT RAIN  55  52  89 W9G16     29.65R
LONDON         LGT RAIN  58  50  75 W14       29.69R
SOMERSET       NOT AVBL
MIDDLESBORO    RAIN      64  50  60 W10G30    29.68R
MONTICELLO     MOCLDY    59  53  80 W24G32    29.74R
$$




USA.gov is the U.S. government's official web portal to all federal, state and local government web resources and services.